{"data":{"norad_id":55178,"epoch":"2026-05-25T00:28:15.178368Z","epoch_age_seconds":72680,"freshness":"FRESH","line1":"1 55178U 23004AQ  26145.01962012 -.00000555  00000+0 -14625-2 0  9990","line2":"2 55178  87.9164  10.4612 0002192  99.6285 260.5094 13.17646834164583","mean_motion":13.17646834,"eccentricity":0.0002192,"inclination_deg":87.9164,"raan_deg":10.4612,"arg_perigee_deg":99.6285,"mean_anomaly_deg":260.5094,"bstar":-0.0014625,"rev_number":16458,"period_min":109.28573293259,"perigee_km":1192.0618064036,"apogee_km":1195.3813091953,"semimajor_km":7571.8585577995,"source":"CELESTRAK","updated_at":"2026-05-25T13:38:22.647838Z"}}